Lid_Strength_Index
3 6 3 6 11 11 13 12 10 10 9 7 7 6 6 6 7 8 2 0 0 0 -1 -1 -1 -1 -1 -1 -1 -1 -1 -1 -1 -1 -1 -1 -1 -1 -1 -1 -1 -1 -1 -1 -1 -2 -2 -2 -2
5 5 4 7 12 15 13 11 11 9 7 7 8 5 6 7 4 4 3 0 -0 -0 -1 -1 -1 -1 -1 -1 -1 -1 -1 -1 -1 -1 -1 -1 -1 -1 -1 -1 -1 -1 -1 -2 -2 -2 -2 -2 -1
7 5 7 8 11 14 13 11 9 8 6 8 7 4 5 6 3 3 1 0 -0 -0 -1 -1 -1 -1 -1 -1 -1 -1 -1 -1 -1 -1 -1 -1 -1 -1 -1 -1 -1 -2 -2 -2 -2 -2 -2 -2 -2
7 6 7 10 12 11 12 10 8 8 7 7 7 6 4 4 4 2 0 0 0 0 -1 -1 -1 -1 -1 -1 -1 -1 -1 -1 -1 -1 -1 -1 -1 -1 -1 -1 -1 -2 -2 -2 -2 -2 -2 -3 -3
7 7 10 11 11 10 10 9 8 8 8 8 7 7 5 3 1 1 1 0 1 0 -1 -1 -1 -1 -1 -1 -1 -1 -1 -1 -1 -1 -1 -1 -1 -1 -1 -1 -2 -2 -2 -2 -2 -2 -3 -3 -3
8 8 11 13 11 10 9 8 8 8 8 7 8 8 5 2 2 1 1 1 -0 0 -0 -1 -1 -1 -1 -1 -1 -1 -1 -1 -1 -1 -1 -1 -1 -1 -1 -1 -1 -2 -2 -2 -2 -3 -3 -3 -3
8 9 11 11 11 11 10 8 9 9 8 8 7 9 6 5 2 1 1 0 0 -0 -0 -1 -1 -1 -1 -1 -1 -1 -1 -1 -1 -1 -1 -1 -1 -1 -1 -1 -1 -2 -2 -2 -2 -3 -3 -3 -3
6 8 10 11 12 11 9 9 8 8 9 7 7 8 8 6 1 1 1 1 0 0 -0 -0 -1 -1 -1 -1 -1 -1 -1 -1 -1 -1 -1 -1 -1 -1 -1 -1 -1 -2 -2 -2 -2 -3 -3 -3 -3
6 9 11 10 10 9 7 9 8 7 8 7 7 7 6 5 1 2 2 2 1 1 0 -0 -0 -1 -1 -1 -1 -1 -1 -1 -1 -1 -1 -1 -2 -2 -2 -2 -1 -2 -2 -2 -2 -2 -2 -2 -2
7 10 9 8 7 8 7 7 7 8 8 8 8 6 6 3 2 3 3 3 2 2 1 0 -0 -0 -1 -1 -1 -1 -1 -1 -1 -1 -1 -1 -2 -2 -1 -2 -1 -2 -2 -2 -2 -2 -2 -2 -2
8 10 9 8 7 6 7 7 6 7 9 8 8 7 6 6 3 3 3 2 2 1 1 0 0 -0 -0 -0 -1 -1 -1 -1 -1 -1 -1 -1 -1 -1 -1 -1 -1 -2 -2 -1 -2 -1 -1 -1 -1
10 9 8 7 7 7 8 6 7 7 7 5 6 5 5 5 5 3 3 2 2 2 1 0 -0 -0 -0 -0 -0 -0 -0 -1 -1 -1 -1 -1 -1 -1 -1 -1 -1 -1 -1 -1 -1 -1 -1 -1 -1
10 9 8 8 8 8 7 8 8 7 6 5 5 6 5 5 4 3 2 2 2 2 1 1 0 0 -0 -0 -0 -0 -0 -0 -1 -1 -1 -1 -0 -0 -1 -1 -1 -1 -1 -1 -1 -1 -1 -1 -1
9 9 9 8 8 8 9 8 8 7 5 5 5 5 5 5 4 4 2 2 2 2 1 1 1 0 0 0 -0 -0 -0 -1 -1 -1 -1 -1 -1 -0 -0 -0 -0 -1 -1 -1 -1 -1 -1 -1 -1
8 10 9 8 8 9 8 9 10 7 6 6 5 4 5 5 4 4 2 2 2 2 1 1 1 0 0 0 0 -0 -0 -1 -0 -1 -1 -1 -1 -1 -1 -0 -0 -1 -1 -1 -1 -1 -1 -0 -0
9 10 11 9 9 8 9 11 8 7 7 7 6 5 4 4 4 2 2 1 1 1 1 1 1 0 0 0 0 -0 -0 -0 -0 -1 -1 -1 -1 -1 -1 -0 -0 -1 -1 -1 -0 -0 0 0 0
10 12 12 11 8 9 9 10 8 6 7 7 7 6 5 4 5 3 2 2 1 1 1 1 1 1 1 0 -0 -0 -0 -0 -0 -1 -0 -1 -1 -1 -1 -0 -0 -1 -0 -0 -0 0 0 1 1
13 12 12 12 9 9 9 10 8 6 7 7 6 6 5 5 4 3 3 2 1 1 1 1 1 1 0 0 0 0 0 -0 -0 -0 -0 -0 -1 -1 -1 -0 -0 -1 0 0 0 0 -0 0 1
11 11 12 10 8 10 9 9 8 6 6 6 6 6 6 5 3 3 2 3 2 1 1 1 1 1 1 1 2 2 2 1 1 -0 -0 -1 -0 -0 -0 -0 -0 -0 0 0 -0 0 1 1 0
10 11 11 9 8 9 9 9 7 7 6 6 5 5 5 5 4 3 2 2 2 1 1 1 1 1 1 1 1 1 1 1 0 0 -0 -1 -0 -1 -0 -0 -0 -0 0 0 0 0 1 1 1
10 11 11 11 9 8 9 10 9 7 7 6 5 4 4 4 3 3 2 2 1 2 1 1 1 1 1 1 1 1 0 1 1 1 1 0 -0 -0 -0 -0 -0 -0 0 1 0 0 1 2 1
12 9 10 10 10 13 9 14 10 8 8 7 6 4 4 4 3 3 3 2 1 2 1 1 1 1 1 0 1 1 2 3 2 1 1 0 -0 -0 -0 -0 -0 -0 0 0 0 -0 0 1 2
10 8 9 9 10 11 11 13 11 8 9 7 6 5 4 3 4 3 2 2 1 1 1 1 1 1 1 1 1 1 2 2 1 1 1 1 0 -0 -0 -0 -0 0 0 0 0 0 0 1 1
7 9 9 10 10 14 11 12 11 9 8 7 5 5 4 4 3 3 2 2 2 1 1 1 1 1 1 1 1 1 2 2 2 2 2 1 1 0 -0 -0 -0 -0 -0 0 0 0 2 1 1
8 10 14 15 14 15 10 12 11 8 6 6 6 5 4 4 4 3 3 3 2 2 1 1 2 2 1 1 1 1 1 1 2 2 2 2 1 1 0 -0 0 0 -0 -0 -0 0 1 1 1
10 11 14 18 17 15 11 14 11 7 6 6 5 5 5 4 4 3 3 3 3 2 2 1 2 2 2 1 1 1 1 1 1 1 1 1 1 1 -0 -0 -0 -0 -0 -0 -0 0 0 1 1
11 12 10 13 13 16 13 11 8 7 8 7 6 6 5 4 4 4 3 2 3 2 2 1 2 2 2 1 1 1 2 1 1 1 0 1 0 0 0 -0 -0 -0 -0 -0 -0 0 1 1 1
9 8 14 15 20 18 14 13 13 10 9 7 7 6 5 4 4 3 3 3 2 2 2 1 1 2 1 1 1 1 1 0 0 0 1 0 0 -0 0 0 -0 -0 -0 -0 -0 0 0 1 1
11 12 12 13 15 18 17 13 9 9 8 8 7 6 6 5 5 4 3 2 2 2 2 2 2 2 2 1 1 1 1 1 0 1 0 0 -0 -0 0 0 0 0 0 -0 0 0 0 1 0
9 10 11 16 16 15 16 15 6 7 7 7 7 6 6 5 5 5 4 3 2 2 2 2 2 2 1 1 1 1 1 1 1 1 0 -0 0 -0 -0 -0 0 0 0 -0 0 0 0 1 1